Flag for Germany Weather past 2 weeks in Erfurt, Thuringia, Germany

37 °F

Passing clouds.

Feels Like: 28 °F
Forecast: 36 / 48 °F
Wind: 15 mph from West

Location: Erfurt-Bindersleben

Current Time: Nov 28, 2015 at 4:14:08 PM

Latest Report: Nov 28, 2015 at 3:20 PM

Visibility: N/A

Pressure: 29.89 "Hg

Humidity: 87%

Dew point: 34 °F

Location of ErfurtLocation

Historic Weather in Erfurt — Graph


Erfurt temperature yesterday

Maximum temperature yesterday: 41 °F (at 1:20 PM)
Minimum temperature yesterday: 23 °F (at 6:50 AM)
Average temperature yesterday: 30 °F

Past Weeks' High & Low Weather Summary

High57 °F (Nov 17, 1:20 PM)100% (Nov 21, 10:20 PM)30.24 "Hg (Nov 21, 10:20 PM)
Low23 °F (Nov 27, 6:50 AM)58% (Nov 18, 11:50 AM)29.39 "Hg (Nov 21, 4:50 AM)
Average41 °F83%29.86 "Hg
* Reported Nov 13 2:20 PM — Nov 28 2:50 PM, Erfurt, Weather by CustomWeather, © 2015

Note: Actual official high and low records may vary slightly from our data, if they occured in-between our weather recording intervals... More about our weather records


Erfurt weather history for previous 24 hours

Time TempWeatherWind HumidityBarometerVisibility
2:50 PM
Sat, Nov 28
37 °FPassing clouds.14 mph87%29.89 "HgN/A
2:20 PM37 °FScattered clouds.15 mph87%29.89 "HgN/A
1:50 PM37 °FPassing clouds.18 mph87%29.86 "HgN/A
1:20 PM37 °FScattered clouds.20 mph87%29.83 "HgN/A
12:50 PM36 °FPartly sunny.17 mph93%29.83 "HgN/A
12:20 PM36 °FDrizzle. Broken clouds.20 mph87%29.80 "HgN/A
11:50 AM36 °FDrizzle. Partly sunny.18 mph87%29.80 "HgN/A
11:20 AM36 °FBroken clouds.18 mph87%29.77 "HgN/A
10:50 AM34 °FLight snow. Partly sunny.13 mph93%29.77 "Hg6 mi
10:20 AM32 °FSnow. Overcast.18 mph93%29.77 "Hg1 mi
9:50 AM34 °FLight snow. Overcast.14 mph87%29.74 "Hg2 mi
9:20 AM32 °FSnow. Overcast.15 mph93%29.74 "Hg1 mi
8:50 AM34 °FLight snow. Overcast.16 mph81%29.74 "HgN/A
7:20 AM32 °FLight snow. Passing clouds.13 mph87%29.71 "HgN/A
6:50 AM32 °FLight snow. Partly cloudy.12 mph80%29.71 "HgN/A
6:20 AM30 °FPartly cloudy.17 mph86%29.71 "HgN/A
5:50 AM30 °FClear.14 mph80%29.71 "Hg10 mi
5:20 AM30 °FClear.15 mph80%29.74 "Hg10 mi
4:50 AM28 °FClear.15 mph86%29.74 "Hg10 mi
4:20 AM27 °FClear.13 mph86%29.77 "Hg10 mi
3:50 AM27 °FClear.9 mph86%29.80 "Hg10 mi
3:20 AM27 °FClear.7 mph86%29.80 "Hg10 mi
2:50 AM27 °FClear.9 mph86%29.83 "Hg10 mi
2:20 AM27 °FClear.9 mph86%29.83 "Hg10 mi
12:50 AM27 °FClear.8 mph86%29.86 "Hg10 mi
11:50 PM
Fri, Nov 27
27 °FClear.12 mph86%29.86 "Hg10 mi
11:20 PM27 °FClear.10 mph86%29.89 "Hg10 mi
10:50 PM25 °FClear.10 mph93%29.89 "Hg10 mi
10:20 PM27 °FClear.9 mph86%29.89 "Hg10 mi
9:50 PM27 °FClear.7 mph86%29.92 "Hg10 mi
9:20 PM27 °FClear.7 mph93%29.92 "Hg10 mi
8:50 PM28 °FClear.7 mph86%29.95 "Hg10 mi
8:20 PM28 °FClear.7 mph86%29.95 "Hg10 mi
7:50 PM28 °FClear.6 mph86%29.95 "Hg10 mi
7:20 PM28 °FClear.7 mph86%29.95 "Hg10 mi
6:20 PM30 °FFog.7 mph80%29.98 "HgN/A
5:50 PM32 °FFog.5 mph80%29.98 "HgN/A
5:20 PM32 °FFog.6 mph80%29.98 "HgN/A
4:50 PM34 °FFog.6 mph75%29.98 "HgN/A
4:20 PM36 °FLight fog.5 mph81%30.01 "HgN/A
Weather by CustomWeather, © 2015

See weather overviewHow to use our weather pages